"startDT [UTC]","vpos","CH4 [ppm]","stdev(CH4) [ppm]","CO2 [ppm]","stdev(CO2) [ppm]","H2O [ppm]","stdev(H2O)","p_LGR [torr]","T_LGR [C]","mt1_LGR [us]","mt2_LGR [us]","T_ECpre [C]","T_EC1 [C]","T_EC2 [C]","p_inlet [hPa]","p_in [hPa]","p_out [hPa]","T_inlet [C]","RH_inlet [%]","dwpt_inlet [C]","T_vent [C]","RH_vent [%]","dwpt_vent [C]","flow_vent [l min-1]","flow_inlet [l min-1]","dwpt_sample [C]","T_room [C]"
2012-10-07 00:00:00,0.0,1.9126,0.0013,396.73,0.29,190.7,31.3,138.15,26.78,24.62,36.37,0.04,-272.74,-272.75,-39,561,-934,21.1,13.8,-7.6,21.4,13.9,-7.3,5.73,2.41,-23.9,26.8
2012-10-07 00:01:00,0.0,1.9118,0.0009,396.78,0.34,195.8,29.6,138.15,26.78,24.62,36.37,0.04,-272.75,-272.74,-39,561,-934,21.1,13.8,-7.6,21.4,13.9,-7.3,5.73,2.41,-23.9,26.8
2012-10-07 00:02:00,0.0,1.9137,0.0010,396.79,0.24,195.4,35.9,138.15,26.78,24.62,36.37,0.04,-272.74,-272.74,-40,561,-934,21.1,13.8,-7.7,21.4,13.9,-7.3,5.73,2.41,-23.8,26.9
2012-10-07 00:03:00,0.0,1.9148,0.0009,396.93,0.32,194.9,29.2,138.14,26.78,24.62,36.37,0.04,-272.74,-272.74,-40,561,-934,21.1,13.8,-7.6,21.4,13.9,-7.3,5.73,2.41,-23.8,26.9
2012-10-07 00:04:00,0.0,1.9143,0.0008,396.75,0.28,195.4,37.3,138.14,26.79,24.62,36.38,0.04,-272.74,-272.74,-40,561,-934,21.1,13.9,-7.6,21.4,13.9,-7.3,5.73,2.40,-23.8,26.8
2012-10-07 00:05:00,0.0,1.9132,0.0011,396.74,0.28,194.5,35.4,138.14,26.79,24.62,36.37,0.04,-272.74,-272.74,-40,562,-934,21.1,13.9,-7.6,21.4,13.9,-7.3,5.73,2.41,-23.8,26.8
2012-10-07 00:06:00,0.0,1.9122,0.0012,396.75,0.34,197.4,34.3,138.14,26.79,24.62,36.38,0.04,-272.75,-272.75,-40,561,-934,21.1,13.9,-7.5,21.4,14.0,-7.2,5.73,2.41,-23.8,26.9
2012-10-07 00:07:00,0.0,1.9130,0.0013,396.69,0.28,202.2,29.7,138.14,26.79,24.62,36.38,0.04,-272.74,-272.75,-40,561,-934,21.1,13.9,-7.5,21.4,14.0,-7.2,5.73,2.41,-23.9,26.9
2012-10-07 00:08:00,0.0,1.9117,0.0010,396.76,0.30,194.0,34.4,138.14,26.80,24.62,36.37,0.04,-272.74,-272.74,-40,561,-933,21.0,14.0,-7.5,21.4,14.0,-7.2,5.73,2.41,-23.9,26.9
2012-10-07 00:09:00,0.0,1.9107,0.0014,396.57,0.30,197.1,33.6,138.15,26.80,24.63,36.39,0.04,-272.74,-272.75,-39,561,-934,21.0,14.0,-7.5,21.4,14.0,-7.2,5.73,2.41,-23.9,26.9
2012-10-07 00:10:00,0.0,1.9114,0.0009,396.68,0.30,200.3,36.6,138.14,26.80,24.62,36.37,0.04,-272.74,-272.75,-40,561,-934,21.0,13.9,-7.6,21.4,14.0,-7.2,5.73,2.42,-23.9,26.9
2012-10-07 00:11:00,0.0,1.9109,0.0009,396.72,0.25,197.5,33.3,138.14,26.81,24.62,36.38,0.04,-272.75,-272.75,-40,561,-934,21.0,14.0,-7.5,21.4,14.0,-7.2,5.73,2.42,-23.9,26.9
2012-10-07 00:12:00,0.0,1.9097,0.0010,396.61,0.27,194.5,38.0,138.14,26.81,24.62,36.38,0.04,-272.74,-272.74,-40,561,-934,21.0,14.0,-7.5,21.4,14.0,-7.2,5.73,2.42,-23.8,26.9
2012-10-07 00:13:00,0.0,1.9106,0.0008,396.69,0.27,197.2,28.4,138.15,26.81,24.62,36.37,0.04,-272.75,-272.75,-40,561,-934,21.0,14.0,-7.5,21.4,14.0,-7.2,5.73,2.42,-23.8,26.9
2012-10-07 00:14:00,0.0,1.9105,0.0012,396.64,0.27,200.6,36.0,138.14,26.81,24.63,36.37,0.04,-272.74,-272.75,-39,561,-933,21.0,14.0,-7.5,21.4,14.0,-7.2,5.73,2.43,-23.8,26.9
2012-10-07 00:15:00,0.0,1.9119,0.0011,396.60,0.31,198.0,35.2,138.14,26.81,24.62,36.37,0.04,-272.74,-272.74,-40,561,-933,21.0,14.0,-7.5,21.4,14.0,-7.2,5.73,2.43,-23.8,26.9
2012-10-07 00:16:00,0.0,1.9102,0.0011,396.53,0.29,194.3,29.2,138.14,26.82,24.62,36.38,0.04,-272.74,-272.75,-40,561,-934,21.0,14.0,-7.5,21.4,14.1,-7.1,5.73,2.43,-23.8,26.9
2012-10-07 00:17:00,0.0,1.9109,0.0009,396.59,0.32,197.8,34.8,138.14,26.82,24.62,36.38,0.04,-272.74,-272.74,-40,561,-934,21.0,14.0,-7.5,21.4,14.1,-7.1,5.73,2.43,-23.8,26.9
2012-10-07 00:18:00,0.0,1.9091,0.0009,396.46,0.28,200.1,30.4,138.14,26.82,24.62,36.38,0.04,-272.74,-272.74,-40,561,-934,21.1,14.0,-7.5,21.4,14.1,-7.1,5.73,2.42,-23.8,26.9
2012-10-07 00:19:00,0.0,1.9094,0.0012,396.60,0.31,206.4,36.1,138.14,26.82,24.63,36.37,0.04,-272.75,-272.74,-40,561,-934,21.1,14.0,-7.5,21.4,14.0,-7.2,5.73,2.43,-23.8,26.9
2012-10-07 00:20:00,0.0,1.9108,0.0009,396.59,0.29,201.7,33.4,138.14,26.82,24.62,36.38,0.04,-272.74,-272.75,-40,561,-934,21.1,14.0,-7.5,21.4,14.1,-7.1,5.73,2.42,-23.8,26.8
2012-10-07 00:21:00,0.0,1.9102,0.0010,396.50,0.33,192.1,31.5,138.14,26.83,24.62,36.37,0.04,-272.74,-272.75,-40,561,-934,21.1,14.0,-7.4,21.4,14.1,-7.1,5.73,2.41,-23.8,26.9
2012-10-07 00:22:00,0.0,1.9076,0.0011,396.33,0.29,187.0,35.9,138.14,26.83,24.62,36.38,0.04,-272.74,-272.75,-40,561,-933,21.1,14.0,-7.5,21.4,14.0,-7.2,5.73,2.41,-23.8,26.9
2012-10-07 00:23:00,0.0,1.9094,0.0009,396.48,0.28,191.6,34.3,138.14,26.83,24.62,36.38,0.04,-272.74,-272.74,-40,561,-933,21.1,14.0,-7.5,21.4,14.0,-7.2,5.73,2.40,-23.8,26.9
2012-10-07 00:24:00,0.0,1.9092,0.0008,396.62,0.28,206.4,34.5,138.14,26.83,24.62,36.37,0.04,-272.74,-272.74,-40,561,-933,21.1,13.9,-7.5,21.5,14.0,-7.2,5.73,2.40,-23.8,26.9
2012-10-07 00:25:00,0.0,1.9109,0.0011,396.55,0.32,197.6,29.6,138.14,26.83,24.62,36.37,0.04,-272.74,-272.74,-40,561,-934,21.1,14.0,-7.4,21.5,14.1,-7.1,5.73,2.40,-23.8,26.9
2012-10-07 00:26:00,0.0,1.9084,0.0010,396.48,0.30,203.2,29.7,138.14,26.84,24.63,36.37,0.04,-272.74,-272.75,-40,562,-934,21.1,14.0,-7.5,21.5,14.0,-7.1,5.73,2.40,-23.8,26.9
2012-10-07 00:27:00,0.0,1.9071,0.0008,396.45,0.26,206.1,34.9,138.14,26.84,24.63,36.37,0.04,-272.74,-272.74,-40,561,-934,21.1,13.8,-7.6,21.5,13.9,-7.3,5.73,2.40,-23.8,26.9
2012-10-07 00:28:00,0.0,1.9091,0.0013,396.53,0.26,202.4,35.2,138.14,26.85,24.62,36.38,0.04,-272.74,-272.75,-40,562,-934,21.1,13.8,-7.6,21.5,13.9,-7.2,5.73,2.41,-23.8,26.9
2012-10-07 00:29:00,0.0,1.9094,0.0012,396.61,0.25,197.6,29.9,138.14,26.85,24.62,36.37,0.04,-272.75,-272.74,-40,562,-934,21.1,13.9,-7.5,21.5,14.0,-7.2,5.73,2.40,-23.8,26.9
2012-10-07 00:30:00,0.0,1.9077,0.0009,396.40,0.30,204.0,35.5,138.14,26.85,24.62,36.38,0.04,-272.75,-272.75,-40,562,-934,21.1,13.8,-7.6,21.5,13.9,-7.2,5.73,2.42,-23.8,26.9
2012-10-07 00:31:00,0.0,1.9077,0.0009,396.33,0.29,210.0,28.4,138.14,26.85,24.62,36.38,0.04,-272.74,-272.74,-40,562,-933,21.1,13.8,-7.6,21.5,13.9,-7.3,5.73,2.42,-23.8,26.9
2012-10-07 00:32:00,0.0,1.9084,0.0010,396.39,0.24,202.8,34.1,138.14,26.85,24.62,36.38,0.04,-272.74,-272.74,-40,562,-933,21.1,13.8,-7.6,21.5,13.9,-7.2,5.73,2.42,-23.8,26.9
2012-10-07 00:33:00,0.0,1.9090,0.0011,396.40,0.32,211.1,32.4,138.14,26.86,24.62,36.37,0.04,-272.74,-272.75,-40,562,-933,21.2,13.8,-7.5,21.5,13.9,-7.2,5.73,2.43,-23.8,26.9
2012-10-07 00:34:00,0.0,1.9093,0.0010,396.41,0.28,194.7,31.2,138.14,26.86,24.62,36.38,0.04,-272.75,-272.75,-40,562,-933,21.2,13.8,-7.6,21.5,13.9,-7.2,5.73,2.43,-23.8,26.9
2012-10-07 00:35:00,0.0,1.9081,0.0009,396.45,0.27,205.1,34.1,138.14,26.86,24.62,36.37,0.04,-272.74,-272.75,-40,562,-934,21.2,13.8,-7.6,21.5,13.8,-7.3,5.73,2.43,-23.7,26.9
2012-10-07 00:36:00,0.0,1.9079,0.0007,396.33,0.26,207.3,38.9,138.14,26.86,24.62,36.38,0.04,-272.75,-272.75,-40,562,-934,21.2,13.8,-7.6,21.5,13.8,-7.3,5.73,2.43,-23.7,26.9
2012-10-07 00:37:00,0.0,1.9073,0.0008,396.40,0.30,207.1,38.0,138.14,26.86,24.62,36.37,0.04,-272.75,-272.75,-40,562,-934,21.2,13.7,-7.6,21.5,13.8,-7.3,5.73,2.42,-23.8,26.9
2012-10-07 00:38:00,0.0,1.9073,0.0009,396.43,0.25,207.1,38.8,138.14,26.87,24.62,36.37,0.04,-272.74,-272.74,-40,562,-934,21.2,13.6,-7.7,21.5,13.7,-7.4,5.73,2.42,-23.7,26.9
2012-10-07 00:39:00,0.0,1.9082,0.0010,396.46,0.26,214.7,30.5,138.14,26.87,24.62,36.38,0.04,-272.74,-272.75,-40,562,-934,21.3,13.6,-7.7,21.5,13.7,-7.4,5.73,2.41,-23.7,26.9
2012-10-07 00:40:00,0.0,1.9080,0.0010,396.41,0.26,198.2,37.0,138.14,26.88,24.62,36.38,0.04,-272.75,-272.75,-40,562,-934,21.3,13.6,-7.7,21.5,13.7,-7.4,5.73,2.41,-23.7,26.9
2012-10-07 00:41:00,0.0,1.9082,0.0009,396.41,0.33,215.6,38.2,138.14,26.88,24.62,36.37,0.04,-272.74,-272.74,-40,562,-934,21.3,13.6,-7.6,21.5,13.7,-7.3,5.73,2.41,-23.7,26.9
2012-10-07 00:42:00,0.0,1.9081,0.0010,396.42,0.28,201.8,29.6,138.14,26.88,24.62,36.37,0.04,-272.74,-272.74,-40,562,-934,21.3,13.7,-7.6,21.5,13.8,-7.3,5.73,2.41,-23.7,26.8
2012-10-07 00:43:00,0.0,1.9074,0.0013,396.30,0.23,204.9,29.7,138.14,26.88,24.62,36.38,0.04,-272.75,-272.74,-40,562,-934,21.3,13.6,-7.6,21.6,13.8,-7.3,5.73,2.40,-23.7,26.8
2012-10-07 00:44:00,0.0,1.9082,0.0009,396.31,0.29,207.6,30.4,138.14,26.88,24.62,36.38,0.04,-272.74,-272.75,-40,562,-934,21.3,13.6,-7.7,21.6,13.7,-7.3,5.73,2.40,-23.7,26.9
2012-10-07 00:45:00,0.0,1.9080,0.0009,396.27,0.29,203.2,38.3,138.14,26.89,24.63,36.39,0.04,-272.74,-272.74,-40,562,-934,21.3,13.7,-7.6,21.6,13.8,-7.3,5.73,2.40,-23.7,26.8
2012-10-07 00:46:00,0.0,1.9070,0.0010,396.22,0.31,198.5,35.8,138.14,26.89,24.62,36.38,0.04,-272.74,-272.75,-40,562,-934,21.3,13.6,-7.6,21.6,13.7,-7.3,5.73,2.40,-23.7,26.9
2012-10-07 00:47:00,0.0,1.9080,0.0015,396.29,0.30,204.0,33.1,138.14,26.89,24.62,36.38,0.04,-272.75,-272.75,-40,562,-934,21.3,13.6,-7.7,21.6,13.7,-7.3,5.73,2.40,-23.7,26.9
2012-10-07 00:48:00,0.0,1.9092,0.0009,396.43,0.30,207.6,29.5,138.14,26.89,24.63,36.38,0.04,-272.74,-272.75,-40,562,-934,21.3,13.6,-7.6,21.6,13.8,-7.3,5.73,2.40,-23.7,26.9
2012-10-07 00:49:00,0.0,1.9088,0.0008,396.36,0.27,208.9,35.8,138.14,26.89,24.62,36.38,0.04,-272.74,-272.74,-40,562,-934,21.4,13.6,-7.6,21.6,13.7,-7.3,5.73,2.41,-23.7,26.9
2012-10-07 00:50:00,0.0,1.9078,0.0008,396.42,0.24,204.9,33.2,138.14,26.90,24.62,36.38,0.04,-272.75,-272.75,-40,562,-934,21.4,13.5,-7.7,21.6,13.7,-7.4,5.73,2.41,-23.7,26.9
2012-10-07 00:51:00,0.0,1.9082,0.0009,396.45,0.28,209.7,30.4,138.14,26.90,24.62,36.37,0.04,-272.74,-272.75,-40,562,-934,21.4,13.5,-7.7,21.6,13.6,-7.4,5.73,2.42,-23.7,26.8
2012-10-07 00:52:00,0.0,1.9080,0.0010,396.41,0.27,205.6,31.1,138.14,26.91,24.62,36.37,0.04,-272.74,-272.74,-40,562,-934,21.4,13.5,-7.7,21.7,13.6,-7.4,5.73,2.42,-23.7,26.8
2012-10-07 00:53:00,0.0,1.9068,0.0011,396.20,0.29,215.2,33.2,138.14,26.91,24.62,36.38,0.04,-272.75,-272.75,-40,562,-934,21.4,13.5,-7.7,21.7,13.6,-7.4,5.73,2.43,-23.7,26.9
2012-10-07 00:54:00,0.0,1.9069,0.0009,396.29,0.26,206.6,26.5,138.14,26.91,24.63,36.38,0.04,-272.74,-272.74,-40,562,-934,21.4,13.4,-7.7,21.7,13.5,-7.4,5.73,2.43,-23.7,26.9
2012-10-07 00:55:00,0.0,1.9072,0.0009,396.22,0.27,208.1,35.4,138.14,26.92,24.63,36.38,0.04,-272.74,-272.75,-40,562,-934,21.4,13.5,-7.7,21.7,13.6,-7.4,5.73,2.43,-23.6,26.9
2012-10-07 00:56:00,0.0,1.9095,0.0014,396.27,0.29,208.9,32.2,138.14,26.92,24.62,36.38,0.04,-272.74,-272.74,-40,562,-934,21.4,13.6,-7.6,21.7,13.7,-7.3,5.73,2.43,-23.6,26.9
2012-10-07 00:57:00,0.0,1.9105,0.0012,396.29,0.29,215.2,29.4,138.14,26.92,24.62,36.39,0.04,-272.74,-272.75,-40,562,-934,21.4,13.7,-7.5,21.7,13.8,-7.2,5.73,2.43,-23.6,26.9
2012-10-07 00:58:00,0.0,1.9122,0.0010,396.57,0.23,206.1,35.4,138.14,26.93,24.62,36.38,0.04,-272.75,-272.74,-40,562,-934,21.4,13.6,-7.6,21.7,13.7,-7.2,5.73,2.42,-23.6,27.0
2012-10-07 00:59:00,0.0,1.9135,0.0011,396.62,0.24,201.6,33.1,138.14,26.93,24.62,36.38,0.04,-272.74,-272.74,-40,562,-934,21.4,13.6,-7.6,21.7,13.7,-7.2,5.73,2.41,-23.6,27.0
2012-10-07 01:00:00,0.0,1.9121,0.0017,396.69,0.35,210.1,32.5,138.14,26.93,24.62,36.37,0.04,-272.74,-272.75,-40,562,-934,21.4,13.6,-7.6,21.7,13.7,-7.2,5.73,2.40,-23.6,27.0
2012-10-07 01:01:00,0.0,1.9096,0.0008,396.57,0.25,223.8,28.0,138.14,26.94,24.63,36.38,0.04,-272.74,-272.74,-40,562,-934,21.4,13.6,-7.6,21.7,13.7,-7.2,5.73,2.39,-23.6,27.0
2012-10-07 01:02:00,0.0,1.9109,0.0009,396.65,0.30,214.3,32.1,138.14,26.94,24.62,36.37,0.04,-272.74,-272.74,-40,562,-934,21.4,13.6,-7.5,21.7,13.7,-7.2,5.73,2.40,-23.6,27.0
2012-10-07 01:03:00,0.0,1.9097,0.0011,396.52,0.27,217.1,38.2,138.14,26.95,24.63,36.38,0.04,-272.74,-272.75,-40,562,-934,21.4,13.6,-7.5,21.7,13.7,-7.2,5.73,2.39,-23.6,27.0
2012-10-07 01:04:00,0.0,1.9110,0.0009,396.48,0.24,222.6,31.9,138.14,26.95,24.62,36.38,0.04,-272.74,-272.75,-40,563,-934,21.4,13.6,-7.6,21.7,13.7,-7.2,5.73,2.40,-23.6,27.0
2012-10-07 01:05:00,0.0,1.9094,0.0013,396.62,0.26,212.2,40.7,138.14,26.96,24.62,36.37,0.04,-272.74,-272.75,-40,563,-933,21.5,13.5,-7.6,21.7,13.7,-7.3,5.73,2.41,-23.6,27.0
2012-10-07 01:06:00,0.0,1.9084,0.0009,396.51,0.28,213.4,34.6,138.14,26.96,24.62,36.37,0.04,-272.75,-272.75,-40,562,-933,21.5,13.5,-7.6,21.8,13.6,-7.3,5.73,2.42,-23.6,27.0
2012-10-07 01:07:00,0.0,1.9106,0.0009,396.58,0.28,213.1,37.6,138.14,26.97,24.62,36.38,0.04,-272.75,-272.75,-40,563,-933,21.5,13.5,-7.6,21.8,13.6,-7.3,5.73,2.43,-23.6,27.1
2012-10-07 01:08:00,0.0,1.9105,0.0009,396.60,0.29,222.1,32.2,138.14,26.97,24.62,36.38,0.04,-272.74,-272.75,-40,563,-933,21.5,13.6,-7.6,21.7,13.7,-7.2,5.73,2.44,-23.6,27.1
2012-10-07 01:09:00,0.0,1.9080,0.0008,396.64,0.26,216.9,38.3,138.14,26.98,24.63,36.38,0.04,-272.75,-272.75,-40,562,-933,21.5,13.5,-7.6,21.7,13.6,-7.3,5.73,2.44,-23.6,27.2
2012-10-07 01:10:00,0.0,1.9094,0.0013,396.54,0.22,220.1,35.0,138.14,26.98,24.62,36.39,0.04,-272.75,-272.74,-40,563,-933,21.5,13.5,-7.6,21.7,13.6,-7.3,5.73,2.43,-23.5,27.2
2012-10-07 01:11:00,0.0,1.9097,0.0010,396.57,0.30,222.5,30.8,138.14,26.98,24.62,36.38,0.04,-272.74,-272.74,-40,563,-933,21.5,13.6,-7.5,21.8,13.7,-7.2,5.73,2.42,-23.5,27.2
2012-10-07 01:12:00,0.0,1.9082,0.0008,396.65,0.27,216.8,35.8,138.14,26.99,24.63,36.38,0.04,-272.74,-272.75,-40,563,-934,21.4,13.5,-7.6,21.7,13.6,-7.3,5.73,2.40,-23.5,27.2
2012-10-07 01:13:00,0.0,1.9092,0.0009,396.57,0.30,223.5,39.3,138.14,26.99,24.62,36.38,0.04,-272.75,-272.74,-40,562,-934,21.5,13.5,-7.6,21.8,13.6,-7.3,5.73,2.39,-23.5,27.2
2012-10-07 01:14:00,0.0,1.9083,0.0009,396.54,0.33,220.9,32.1,138.14,26.99,24.62,36.38,0.04,-272.74,-272.75,-40,563,-934,21.5,13.4,-7.7,21.8,13.5,-7.3,5.73,2.38,-23.5,27.2
2012-10-07 01:15:00,0.0,1.9086,0.0010,396.51,0.31,228.9,31.2,138.14,27.00,24.62,36.38,0.04,-272.74,-272.74,-40,563,-934,21.5,13.4,-7.7,21.8,13.5,-7.4,5.73,2.40,-23.5,27.2
2012-10-07 01:16:00,0.0,1.9074,0.0008,396.44,0.28,217.8,33.8,138.14,27.00,24.63,36.39,0.04,-272.74,-272.75,-40,563,-934,21.5,13.3,-7.8,21.8,13.4,-7.4,5.73,2.41,-23.5,27.2
2012-10-07 01:17:00,0.0,1.9080,0.0012,396.51,0.31,218.4,30.8,138.14,27.01,24.63,36.38,0.04,-272.75,-272.74,-40,563,-933,21.5,13.3,-7.8,21.8,13.4,-7.5,5.73,2.43,-23.5,27.2
2012-10-07 01:18:00,0.0,1.9094,0.0011,396.69,0.28,223.2,39.5,138.14,27.01,24.63,36.38,0.04,-272.74,-272.74,-40,563,-934,21.5,13.4,-7.7,21.8,13.5,-7.4,5.73,2.44,-23.5,27.2
2012-10-07 01:19:00,0.0,1.9086,0.0014,396.60,0.30,220.8,28.9,138.14,27.02,24.63,36.38,0.04,-272.74,-272.74,-40,563,-934,21.5,13.4,-7.6,21.8,13.5,-7.3,5.73,2.44,-23.5,27.2
2012-10-07 01:20:00,0.0,1.9061,0.0008,396.29,0.28,226.7,39.1,138.13,27.02,24.63,36.39,0.04,-272.75,-272.75,-40,563,-934,21.5,13.3,-7.8,21.8,13.4,-7.4,5.73,2.43,-23.5,27.2
2012-10-07 01:21:00,0.0,1.9062,0.0009,396.34,0.29,223.8,36.5,138.14,27.03,24.63,36.38,0.04,-272.74,-272.74,-40,563,-934,21.5,13.2,-7.8,21.8,13.3,-7.5,5.73,2.42,-23.5,27.2
2012-10-07 01:22:00,0.0,1.9087,0.0009,396.46,0.30,224.2,40.8,138.14,27.03,24.62,36.38,0.04,-272.74,-272.74,-40,563,-934,21.5,13.4,-7.7,21.8,13.5,-7.4,5.73,2.40,-23.5,27.2
2012-10-07 01:23:00,0.0,1.9084,0.0009,396.50,0.26,223.0,35.9,138.14,27.04,24.62,36.38,0.04,-272.74,-272.74,-40,563,-934,21.6,13.4,-7.7,21.9,13.5,-7.3,5.73,2.39,-23.5,27.2
2012-10-07 01:24:00,0.0,1.9079,0.0010,396.45,0.26,225.7,35.0,138.14,27.04,24.62,36.38,0.04,-272.75,-272.75,-40,563,-934,21.6,13.4,-7.7,21.9,13.5,-7.3,5.73,2.39,-23.5,27.2
2012-10-07 01:25:00,0.0,1.9079,0.0010,396.52,0.31,233.7,34.0,138.14,27.04,24.62,36.38,0.04,-272.74,-272.75,-40,563,-934,21.6,13.4,-7.7,21.9,13.5,-7.3,5.73,2.40,-23.5,27.2
2012-10-07 01:26:00,0.0,1.9058,0.0009,396.07,0.26,221.7,32.7,138.14,27.05,24.63,36.38,0.04,-272.74,-272.75,-40,563,-934,21.6,13.3,-7.7,21.9,13.4,-7.4,5.73,2.41,-23.5,27.2
2012-10-07 01:27:00,0.0,1.9055,0.0009,396.15,0.23,226.4,31.9,138.14,27.05,24.63,36.38,0.04,-272.74,-272.75,-40,563,-934,21.6,13.2,-7.8,21.9,13.3,-7.5,5.73,2.43,-23.5,27.2
2012-10-07 01:28:00,0.0,1.9064,0.0012,396.24,0.30,223.8,32.6,138.14,27.06,24.63,36.38,0.04,-272.75,-272.75,-40,563,-934,21.6,13.2,-7.8,21.9,13.3,-7.5,5.73,2.43,-23.4,27.2
2012-10-07 01:29:00,0.0,1.9088,0.0017,396.30,0.31,218.3,22.8,138.14,27.06,24.62,36.39,0.04,-272.74,-272.74,-40,563,-934,21.6,13.3,-7.7,21.9,13.4,-7.3,5.73,2.44,-23.4,27.2
2012-10-07 01:30:00,0.0,1.9094,0.0013,396.46,0.28,227.2,35.5,138.13,27.06,24.63,36.38,0.04,-272.75,-272.75,-40,563,-934,21.6,13.4,-7.6,21.9,13.5,-7.3,5.73,2.44,-23.4,27.2
2012-10-07 01:31:00,0.0,1.9067,0.0016,396.09,0.33,220.1,37.6,138.13,27.07,24.63,36.38,0.04,-272.74,-272.74,-40,563,-934,21.6,13.3,-7.6,21.9,13.5,-7.3,5.73,2.42,-23.4,27.2
2012-10-07 01:32:00,0.0,1.9087,0.0015,396.17,0.32,227.9,33.7,138.13,27.07,24.63,36.38,0.04,-272.74,-272.74,-40,563,-934,21.6,13.4,-7.6,21.9,13.5,-7.3,5.73,2.40,-23.4,27.3
2012-10-07 01:33:00,0.0,1.9082,0.0009,396.26,0.27,223.8,33.8,138.13,27.07,24.63,36.38,0.04,-272.75,-272.75,-40,563,-935,21.6,13.4,-7.6,21.9,13.5,-7.2,5.73,2.39,-23.4,27.3
2012-10-07 01:34:00,0.0,1.9068,0.0009,396.17,0.24,223.7,31.5,138.14,27.08,24.63,36.38,0.04,-272.75,-272.75,-40,563,-934,21.7,13.4,-7.6,21.9,13.5,-7.3,5.73,2.38,-23.4,27.3
2012-10-07 01:35:00,0.0,1.9069,0.0009,396.11,0.29,228.7,31.1,138.13,27.08,24.63,36.38,0.04,-272.74,-272.74,-40,563,-934,21.7,13.3,-7.6,21.9,13.4,-7.3,5.73,2.39,-23.4,27.3
2012-10-07 01:36:00,0.0,1.9080,0.0011,396.25,0.28,232.8,35.5,138.13,27.09,24.63,36.37,0.04,-272.74,-272.74,-40,563,-934,21.6,13.4,-7.6,21.9,13.5,-7.2,5.73,2.41,-23.4,27.1
2012-10-07 01:37:00,0.0,1.9078,0.0009,396.17,0.32,228.5,35.0,138.14,27.09,24.63,36.39,0.04,-272.74,-272.75,-40,563,-934,21.7,13.4,-7.6,21.9,13.5,-7.3,5.73,2.42,-23.4,27.3
2012-10-07 01:38:00,0.0,1.9080,0.0011,396.23,0.27,222.8,40.0,138.14,27.10,24.62,36.38,0.04,-272.74,-272.75,-40,563,-934,21.7,13.4,-7.6,21.9,13.5,-7.3,5.73,2.43,-23.4,27.3
2012-10-07 01:39:00,0.0,1.9071,0.0009,396.17,0.29,220.3,33.2,138.13,27.10,24.63,36.39,0.04,-272.74,-272.74,-40,563,-934,21.7,13.3,-7.7,21.9,13.4,-7.4,5.73,2.44,-23.4,27.3
2012-10-07 01:40:00,0.0,1.9076,0.0010,396.27,0.29,233.7,30.7,138.13,27.11,24.62,36.38,0.04,-272.74,-272.75,-40,563,-934,21.7,13.3,-7.6,21.9,13.4,-7.3,5.73,2.43,-23.4,27.3
2012-10-07 01:41:00,0.0,1.9066,0.0009,396.17,0.28,225.8,31.9,138.14,27.11,24.63,36.39,0.04,-272.74,-272.74,-40,563,-934,21.7,13.3,-7.7,21.9,13.4,-7.3,5.73,2.42,-23.4,27.3
2012-10-07 01:42:00,0.0,1.9078,0.0008,396.15,0.28,238.7,36.2,138.13,27.11,24.63,36.38,0.04,-272.74,-272.75,-40,564,-934,21.7,13.3,-7.7,21.9,13.4,-7.3,5.73,2.41,-23.4,27.3
2012-10-07 01:43:00,0.0,1.9077,0.0015,396.13,0.32,235.1,37.1,138.14,27.12,24.63,36.38,0.04,-272.75,-272.75,-40,563,-935,21.7,13.3,-7.6,22.0,13.4,-7.3,5.73,2.40,-23.4,27.3
2012-10-07 01:44:00,0.0,1.9064,0.0010,396.09,0.29,224.0,32.2,138.13,27.12,24.63,36.38,0.04,-272.74,-272.75,-40,564,-933,21.7,13.3,-7.7,22.0,13.4,-7.4,5.73,2.39,-23.4,27.3
2012-10-07 01:45:00,0.0,1.9073,0.0010,396.13,0.25,231.2,32.3,138.13,27.12,24.62,36.38,0.04,-272.74,-272.74,-40,564,-936,21.7,13.3,-7.6,22.0,13.4,-7.3,5.73,2.39,-23.4,27.3
2012-10-07 01:46:00,0.0,1.9078,0.0010,396.16,0.30,226.4,35.3,138.13,27.13,24.62,36.38,0.04,-272.74,-272.74,-40,563,-939,21.7,13.4,-7.5,22.0,13.5,-7.2,5.73,2.39,-23.4,27.3
2012-10-07 01:47:00,0.0,1.9070,0.0011,396.10,0.31,232.8,38.3,138.13,27.13,24.63,36.38,0.04,-272.74,-272.74,-37,564,-934,21.7,13.4,-7.6,22.0,13.5,-7.2,5.73,2.41,-23.4,27.3
2012-10-07 01:48:00,0.0,1.9065,0.0010,396.05,0.27,230.5,34.2,138.13,27.13,24.63,36.38,0.04,-272.75,-272.75,-41,564,-934,21.7,13.3,-7.6,22.0,13.4,-7.3,5.73,2.42,-23.4,27.3
2012-10-07 01:49:00,0.0,1.9075,0.0009,396.06,0.30,232.4,39.1,138.13,27.14,24.62,36.38,0.04,-272.75,-272.74,-38,564,-933,21.7,13.4,-7.5,22.0,13.5,-7.2,5.73,2.43,-23.4,27.3
2012-10-07 01:50:00,0.0,1.9071,0.0010,396.12,0.25,226.5,32.4,138.13,27.14,24.63,36.38,0.04,-272.74,-272.75,-39,563,-935,21.7,13.5,-7.5,22.0,13.5,-7.2,5.73,2.44,-23.4,27.3
2012-10-07 01:51:00,0.0,1.9070,0.0009,396.10,0.26,240.0,33.3,138.13,27.15,24.63,36.38,0.04,-272.75,-272.75,-40,563,-933,21.7,13.4,-7.5,22.0,13.5,-7.2,5.73,2.44,-23.4,27.3
2012-10-07 01:52:00,0.0,1.9063,0.0010,396.08,0.29,239.0,29.9,138.13,27.15,24.62,36.38,0.04,-272.75,-272.74,-40,562,-934,21.7,13.3,-7.6,22.0,13.4,-7.3,5.73,2.43,-23.4,27.3
2012-10-07 01:53:00,0.0,1.9063,0.0009,396.03,0.26,227.8,36.6,138.13,27.15,24.63,36.38,0.04,-272.74,-272.74,-43,564,-933,21.7,13.3,-7.6,22.0,13.4,-7.3,5.73,2.41,-23.4,27.4
2012-10-07 01:54:00,0.0,1.9057,0.0009,395.95,0.28,241.0,41.4,138.13,27.16,24.63,36.39,0.04,-272.74,-272.75,-39,563,-935,21.7,13.2,-7.7,22.0,13.4,-7.3,5.73,2.40,-23.4,27.4
2012-10-07 01:55:00,0.0,1.9065,0.0012,395.98,0.26,240.5,36.2,138.13,27.16,24.63,36.38,0.04,-272.75,-272.75,-40,563,-934,21.7,13.2,-7.7,22.0,13.3,-7.4,5.73,2.39,-23.4,27.3
2012-10-07 01:56:00,0.0,1.9088,0.0010,396.11,0.28,240.6,31.0,138.13,27.16,24.63,36.38,0.04,-272.74,-272.75,-41,564,-934,21.7,13.4,-7.5,22.0,13.5,-7.2,5.73,2.38,-23.3,27.4
2012-10-07 01:57:00,0.0,1.9079,0.0010,396.17,0.30,228.0,31.9,138.13,27.17,24.62,36.38,0.04,-272.75,-272.75,-41,563,-934,21.7,13.3,-7.6,22.1,13.4,-7.2,5.73,2.39,-23.3,27.4
2012-10-07 01:58:00,0.0,1.9085,0.0013,396.28,0.28,239.8,31.3,138.13,27.17,24.63,36.38,0.04,-272.74,-272.75,-40,563,-935,21.7,13.3,-7.6,22.1,13.4,-7.3,5.73,2.41,-23.4,27.3
2012-10-07 01:59:00,0.0,1.9089,0.0012,396.26,0.27,231.3,37.7,138.13,27.17,24.63,36.38,0.04,-272.74,-272.75,-40,563,-934,21.7,13.3,-7.6,22.1,13.4,-7.2,5.73,2.42,-23.3,27.3
2012-10-07 02:00:00,0.0,1.9077,0.0009,396.19,0.23,232.9,36.2,138.13,27.18,24.63,36.38,0.04,-272.74,-272.75,-40,564,-934,21.8,13.2,-7.6,22.1,13.4,-7.3,5.73,2.43,-23.3,27.3
2012-10-07 02:01:00,0.0,1.9069,0.0014,396.07,0.26,240.0,33.0,138.13,27.18,24.63,36.39,0.04,-272.74,-272.75,-40,564,-934,21.8,13.2,-7.7,22.1,13.3,-7.3,5.73,2.44,-23.4,27.3
2012-10-07 02:02:00,0.0,1.9061,0.0008,396.21,0.24,242.1,34.5,138.13,27.18,24.62,36.38,0.04,-272.75,-272.74,-40,564,-934,21.8,13.1,-7.8,22.1,13.2,-7.4,5.73,2.43,-23.3,27.3
2012-10-07 02:03:00,0.0,1.9069,0.0010,396.20,0.26,237.3,37.1,138.13,27.19,24.62,36.38,0.04,-272.75,-272.74,-40,563,-935,21.8,13.1,-7.7,22.1,13.2,-7.4,5.73,2.43,-23.3,27.3
2012-10-07 02:04:00,0.0,1.9062,0.0010,396.13,0.28,241.7,35.7,138.13,27.19,24.62,36.38,0.04,-272.74,-272.75,-40,564,-934,21.8,13.0,-7.8,22.1,13.2,-7.4,5.73,2.40,-23.3,27.3
2012-10-07 02:05:00,0.0,1.9052,0.0010,396.11,0.31,232.3,34.8,138.13,27.20,24.63,36.38,0.04,-272.74,-272.75,-40,564,-934,21.8,13.0,-7.9,22.1,13.1,-7.5,5.73,2.40,-23.3,27.3
2012-10-07 02:06:00,0.0,1.9055,0.0009,396.06,0.24,236.6,37.1,138.13,27.20,24.62,36.39,0.04,-272.74,-272.74,-40,564,-934,21.8,13.0,-7.9,22.1,13.1,-7.5,5.73,2.39,-23.3,27.3
2012-10-07 02:07:00,0.0,1.9049,0.0009,395.99,0.29,245.6,32.6,138.13,27.21,24.63,36.38,0.04,-272.74,-272.75,-40,564,-935,21.8,12.9,-8.0,22.1,13.0,-7.6,5.73,2.39,-23.3,27.4
2012-10-07 02:08:00,0.0,1.9047,0.0009,396.12,0.30,236.8,37.0,138.13,27.21,24.63,36.38,0.04,-272.74,-272.75,-40,564,-935,21.8,12.8,-8.0,22.1,13.0,-7.6,5.73,2.39,-23.3,27.3
2012-10-07 02:09:00,0.0,1.9066,0.0010,396.21,0.27,238.7,36.3,138.13,27.22,24.62,36.38,0.04,-272.74,-272.74,-40,564,-934,21.9,12.9,-7.9,22.1,13.0,-7.5,5.73,2.40,-23.3,27.3
2012-10-07 02:10:00,0.0,1.9062,0.0007,396.10,0.23,238.9,35.2,138.13,27.22,24.63,36.38,0.04,-272.74,-272.75,-40,564,-934,21.9,13.0,-7.8,22.1,13.2,-7.4,5.73,2.41,-23.3,27.3
2012-10-07 02:11:00,0.0,1.9066,0.0011,396.09,0.22,243.2,35.6,138.13,27.23,24.63,36.38,0.04,-272.75,-272.75,-40,564,-934,21.9,13.1,-7.7,22.1,13.2,-7.4,5.73,2.43,-23.3,27.3
2012-10-07 02:12:00,0.0,1.9070,0.0008,395.89,0.30,247.4,36.6,138.13,27.23,24.63,36.39,0.04,-272.75,-272.74,-40,564,-934,21.8,13.2,-7.6,22.1,13.3,-7.3,5.73,2.43,-23.3,27.4
2012-10-07 02:13:00,0.0,1.9066,0.0009,395.92,0.26,243.0,38.2,138.13,27.23,24.63,36.38,0.04,-272.74,-272.74,-40,564,-935,21.9,13.2,-7.6,22.1,13.3,-7.2,5.73,2.43,-23.3,27.4
2012-10-07 02:14:00,0.0,1.9080,0.0011,395.86,0.29,246.4,36.8,138.13,27.24,24.63,36.39,0.04,-272.74,-272.74,-40,564,-934,21.9,13.3,-7.5,22.1,13.4,-7.2,5.73,2.43,-23.3,27.4
2012-10-07 02:15:00,0.0,1.9072,0.0009,395.87,0.29,245.1,46.2,138.13,27.24,24.63,36.38,0.04,-272.75,-272.75,-41,564,-934,21.9,13.3,-7.5,22.1,13.4,-7.2,5.73,2.41,-23.3,27.4
2012-10-07 02:16:00,0.0,1.9055,0.0012,395.82,0.31,240.8,35.7,138.13,27.25,24.63,36.38,0.04,-272.74,-272.74,-41,564,-935,21.9,13.1,-7.7,22.1,13.2,-7.4,5.73,2.40,-23.3,27.4